Orbital Elements at Epoch 2459200.5 (2020-Dec-17.0) TDB
Reference: JPL 18 (heliocentric ecliptic J2000)
Element | Value | Uncertainty (1-sigma) | Units |
e | .1827236974005077 | 3.291e-08 | |
a | 2.351226891595743 | 8.8595e-09 | au |
q | 1.921602020535867 | 7.8185e-08 | au |
i | 4.625847321968251 | 4.5495e-06 | deg |
node | 325.588073179796 | 5.35e-05 | deg |
peri | 141.3359078995358 | 5.596e-05 | deg |
M | 61.34980934039822 | 1.5355e-05 | deg |
tp | 2458976.085479608942 (2020-May-06.58547961) | 5.5694e-05 | TDB |
period | 1316.86191382476 3.61 | 7.443e-06 2.038e-08 | d yr |
n | .2733771826951831 | 1.5451e-09 | deg/d |
Q | 2.780851762655621 | 1.0478e-08 | au |
|
| | Orbit Determination Parameters
Additional Information
|